Time,TemperatureF,DewpointF,PressureIn,WindDirection,WindDirectionDegrees,WindSpeedMPH,WindSpeedGustMPH,Humidity,HourlyPrecipIn,Conditions,Clouds,dailyrainin,SoftwareType,DateUTC
2013-05-06 00:01:00,57.9,45.8,29.94,ESE,112,2.3,2.3,64,0.00,OVC,OVC,0.00,WeatherDisplay:10.37,2013-05-06 04:01:00,
2013-05-06 00:04:00,57.9,45.8,29.94,ENE,68,0.0,0.0,64,0.00,OVC,OVC,0.00,WeatherDisplay:10.37,2013-05-06 04:04:00,
2013-05-06 00:05:00,57.7,46.5,29.94,East,90,0.0,0.0,66,0.00,OVC,OVC,0.00,WeatherDisplay:10.37,2013-05-06 04:05:00,
2013-05-06 00:08:00,57.7,46.5,29.94,ENE,68,0.0,0.0,66,0.00,OVC,OVC,0.00,WeatherDisplay:10.37,2013-05-06 04:08:00,
2013-05-06 00:13:00,57.4,46.9,29.94,NE,45,1.2,1.3,68,0.00,OVC,OVC,0.00,WeatherDisplay:10.37,2013-05-06 04:13:00,
2013-05-06 00:18:00,57.4,46.9,29.94,East,90,0.0,0.0,68,0.00,OVC,OVC,0.00,WeatherDisplay:10.37,2013-05-06 04:18:00,
2013-05-06 00:23:00,57.0,46.6,29.94,SSE,158,1.2,1.2,68,0.00,OVC,OVC,0.00,WeatherDisplay:10.37,2013-05-06 04:23:00,
2013-05-06 00:28:00,56.8,46.4,29.94,ESE,112,0.0,0.0,68,0.00,OVC,OVC,0.00,WeatherDisplay:10.37,2013-05-06 04:28:00,
2013-05-06 00:33:00,56.7,46.2,29.94,ESE,112,0.0,0.0,68,0.00,OVC,OVC,0.00,WeatherDisplay:10.37,2013-05-06 04:33:00,
2013-05-06 00:38:00,56.7,46.2,29.94,ENE,68,0.0,0.0,68,0.00,OVC,OVC,0.00,WeatherDisplay:10.37,2013-05-06 04:38:00,
2013-05-06 00:43:00,56.1,45.7,29.94,NE,45,0.0,0.0,68,0.00,OVC,OVC,0.00,WeatherDisplay:10.37,2013-05-06 04:43:00,
2013-05-06 00:48:00,55.9,46.3,29.94,SE,135,0.0,0.0,70,0.00,OVC,OVC,0.00,WeatherDisplay:10.37,2013-05-06 04:48:00,
2013-05-06 00:53:00,55.9,46.7,29.94,ENE,68,0.0,0.0,71,0.00,OVC,OVC,0.00,WeatherDisplay:10.37,2013-05-06 04:53:00,
2013-05-06 00:58:00,55.8,46.9,29.94,ENE,68,0.0,0.0,72,0.00,OVC,OVC,0.00,WeatherDisplay:10.37,2013-05-06 04:58:00,
2013-05-06 01:03:00,55.8,46.9,29.94,ESE,112,0.0,0.0,72,0.00,OVC,OVC,0.00,WeatherDisplay:10.37,2013-05-06 05:03:00,
2013-05-06 01:08:00,55.8,46.9,29.94,NE,45,0.0,0.0,72,0.00,OVC,OVC,0.00,WeatherDisplay:10.37,2013-05-06 05:08:00,
2013-05-06 01:13:00,55.6,46.7,29.94,ENE,68,2.3,2.3,72,0.00,OVC,OVC,0.00,WeatherDisplay:10.37,2013-05-06 05:13:00,
2013-05-06 01:18:00,55.6,46.7,29.94,NNE,22,0.0,0.0,72,0.00,OVC,OVC,0.00,WeatherDisplay:10.37,2013-05-06 05:18:00,
2013-05-06 01:23:00,55.6,46.7,29.94,NE,45,0.0,0.0,72,0.00,OVC,OVC,0.00,WeatherDisplay:10.37,2013-05-06 05:23:00,
2013-05-06 01:28:00,55.2,46.3,29.94,ESE,112,0.0,0.0,72,0.00,OVC,OVC,0.00,WeatherDisplay:10.37,2013-05-06 05:28:00,
2013-05-06 01:33:00,55.2,46.0,29.94,SSE,158,0.0,0.0,71,0.00,OVC,OVC,0.00,WeatherDisplay:10.37,2013-05-06 05:33:00,
2013-05-06 01:38:00,55.0,45.8,29.93,SE,135,0.0,0.0,71,0.00,OVC,OVC,0.00,WeatherDisplay:10.37,2013-05-06 05:38:00,
2013-05-06 01:43:00,54.7,45.5,29.93,NE,45,0.0,0.0,71,0.00,OVC,OVC,0.00,WeatherDisplay:10.37,2013-05-06 05:43:00,
2013-05-06 01:48:00,54.5,45.3,29.93,NNW,338,0.0,0.0,71,0.00,OVC,OVC,0.00,WeatherDisplay:10.37,2013-05-06 05:48:00,
2013-05-06 01:53:00,54.3,45.1,29.94,NNW,338,0.0,0.0,71,0.00,OVC,OVC,0.00,WeatherDisplay:10.37,2013-05-06 05:53:00,
2013-05-06 01:58:00,54.1,44.9,29.94,SSE,158,0.0,0.0,71,0.00,OVC,OVC,0.00,WeatherDisplay:10.37,2013-05-06 05:58:00,
2013-05-06 02:03:00,54.0,44.8,29.93,NW,315,0.0,0.0,71,0.00,OVC,OVC,0.00,WeatherDisplay:10.37,2013-05-06 06:03:00,
2013-05-06 02:08:00,53.8,45.0,29.93,NW,315,0.0,0.0,72,0.00,OVC,OVC,0.00,WeatherDisplay:10.37,2013-05-06 06:08:00,
2013-05-06 02:13:00,53.8,45.3,29.93,NE,45,0.0,0.0,73,0.00,OVC,OVC,0.00,WeatherDisplay:10.37,2013-05-06 06:13:00,
2013-05-06 02:18:00,53.8,45.3,29.93,NE,45,0.0,0.0,73,0.00,OVC,OVC,0.00,WeatherDisplay:10.37,2013-05-06 06:18:00,
2013-05-06 02:23:00,53.4,45.0,29.93,NE,45,0.0,0.0,73,0.00,OVC,OVC,0.00,WeatherDisplay:10.37,2013-05-06 06:23:00,
2013-05-06 02:28:00,53.4,45.0,29.93,North,0,0.0,0.0,73,0.00,OVC,OVC,0.00,WeatherDisplay:10.37,2013-05-06 06:28:00,
2013-05-06 02:33:00,53.2,44.8,29.93,NNW,338,0.0,0.0,73,0.00,OVC,OVC,0.00,WeatherDisplay:10.37,2013-05-06 06:33:00,
2013-05-06 02:38:00,53.1,44.6,29.93,SSE,158,0.0,0.0,73,0.00,OVC,OVC,0.00,WeatherDisplay:10.37,2013-05-06 06:38:00,
2013-05-06 02:43:00,52.9,44.5,29.93,North,0,0.0,0.0,73,0.00,OVC,OVC,0.00,WeatherDisplay:10.37,2013-05-06 06:43:00,
2013-05-06 02:48:00,52.9,44.8,29.93,North,0,0.0,0.0,74,0.00,OVC,OVC,0.00,WeatherDisplay:10.37,2013-05-06 06:48:00,
2013-05-06 02:53:00,52.7,44.6,29.93,NNW,338,0.0,0.0,74,0.00,OVC,OVC,0.00,WeatherDisplay:10.37,2013-05-06 06:53:00,
2013-05-06 02:58:00,52.5,44.5,29.93,North,0,0.0,0.0,74,0.00,OVC,OVC,0.00,WeatherDisplay:10.37,2013-05-06 06:58:00,
2013-05-06 03:03:00,52.3,44.6,29.93,North,0,0.0,0.0,75,0.00,OVC,OVC,0.00,WeatherDisplay:10.37,2013-05-06 07:03:00,
2013-05-06 03:08:00,52.5,44.5,29.93,NNW,338,0.0,0.0,74,0.00,OVC,OVC,0.00,WeatherDisplay:10.37,2013-05-06 07:08:00,
2013-05-06 03:14:00,52.2,44.5,29.93,North,0,0.0,0.0,75,0.00,OVC,OVC,0.00,WeatherDisplay:10.37,2013-05-06 07:14:00,
2013-05-06 03:19:00,52.5,44.5,29.93,North,1,57.5,0.0,74,0.00,OVC,OVC,0.00,WeatherDisplay:10.37,2013-05-06 07:19:00,
2013-05-06 03:24:00,52.0,44.3,29.93,NNE,22,0.0,57.2,75,0.00,OVC,OVC,0.00,WeatherDisplay:10.37,2013-05-06 07:24:00,
2013-05-06 03:29:00,51.8,44.5,29.93,NNE,22,57.5,0.0,76,0.00,OVC,OVC,0.00,WeatherDisplay:10.37,2013-05-06 07:29:00,
2013-05-06 03:34:00,52.0,44.6,29.92,North,0,0.0,0.0,76,0.00,OVC,OVC,0.00,WeatherDisplay:10.37,2013-05-06 07:34:00,
2013-05-06 03:39:00,51.6,44.3,29.92,NE,45,0.0,0.0,76,0.00,OVC,OVC,0.00,WeatherDisplay:10.37,2013-05-06 07:39:00,
2013-05-06 03:44:00,51.6,44.3,29.93,NNW,338,0.0,0.0,76,0.00,OVC,OVC,0.00,WeatherDisplay:10.37,2013-05-06 07:44:00,
2013-05-06 03:49:00,51.4,44.1,29.92,NNW,338,0.0,0.0,76,0.00,OVC,OVC,0.00,WeatherDisplay:10.37,2013-05-06 07:49:00,
2013-05-06 03:54:00,51.1,44.1,29.93,NNW,338,0.0,0.0,77,0.00,OVC,OVC,0.00,WeatherDisplay:10.37,2013-05-06 07:54:00,
2013-05-06 03:59:00,51.1,44.1,29.93,NNW,338,0.0,0.0,77,0.00,OVC,OVC,0.00,WeatherDisplay:10.37,2013-05-06 07:59:00,
2013-05-06 04:04:00,50.9,43.9,29.92,NNW,338,0.0,0.0,77,0.00,OVC,OVC,0.00,WeatherDisplay:10.37,2013-05-06 08:04:00,
2013-05-06 04:09:00,50.9,44.3,29.92,NW,315,0.0,0.0,78,0.00,OVC,OVC,0.00,WeatherDisplay:10.37,2013-05-06 08:09:00,
2013-05-06 04:15:00,50.7,44.1,29.92,NW,315,0.0,0.0,78,0.00,OVC,OVC,0.00,WeatherDisplay:10.37,2013-05-06 08:15:00,
2013-05-06 04:20:00,50.7,44.4,29.92,NNW,338,0.0,0.0,79,0.00,OVC,OVC,0.00,WeatherDisplay:10.37,2013-05-06 08:20:00,
2013-05-06 04:25:00,50.4,44.1,29.92,NW,315,0.0,0.0,79,0.00,OVC,OVC,0.00,WeatherDisplay:10.37,2013-05-06 08:25:00,
2013-05-06 04:30:00,50.5,44.3,29.92,NW,315,0.0,0.0,79,0.00,OVC,OVC,0.00,WeatherDisplay:10.37,2013-05-06 08:30:00,
2013-05-06 04:36:00,49.8,43.9,29.92,NW,315,0.0,0.0,80,0.00,OVC,OVC,0.00,WeatherDisplay:10.37,2013-05-06 08:36:00,
2013-05-06 04:41:00,49.8,43.9,29.92,NW,315,0.0,0.0,80,0.00,OVC,OVC,0.00,WeatherDisplay:10.37,2013-05-06 08:41:00,
2013-05-06 04:46:00,49.8,43.9,29.92,NW,315,0.0,0.0,80,0.00,OVC,OVC,0.00,WeatherDisplay:10.37,2013-05-06 08:46:00,
2013-05-06 04:51:00,49.8,43.9,29.92,NW,315,1.2,0.0,80,0.00,OVC,OVC,0.00,WeatherDisplay:10.37,2013-05-06 08:51:00,
2013-05-06 04:56:00,49.6,44.0,29.92,NW,315,0.0,0.0,81,0.00,OVC,OVC,0.00,WeatherDisplay:10.37,2013-05-06 08:56:00,
2013-05-06 05:01:00,49.6,44.0,29.92,NW,315,0.0,0.0,81,0.00,OVC,OVC,0.00,WeatherDisplay:10.37,2013-05-06 09:01:00,
2013-05-06 05:06:00,49.3,43.7,29.92,NW,315,0.0,0.0,81,0.00,OVC,OVC,0.00,WeatherDisplay:10.37,2013-05-06 09:06:00,
2013-05-06 05:11:00,49.3,43.7,29.92,NNW,338,0.0,0.0,81,0.00,OVC,OVC,0.00,WeatherDisplay:10.37,2013-05-06 09:11:00,
2013-05-06 05:16:00,49.1,43.5,29.92,NNW,338,0.0,0.0,81,0.00,OVC,OVC,0.00,WeatherDisplay:10.37,2013-05-06 09:16:00,
2013-05-06 05:21:00,49.1,43.5,29.92,NNW,338,0.0,0.0,81,0.00,OVC,OVC,0.00,WeatherDisplay:10.37,2013-05-06 09:21:00,
2013-05-06 05:26:00,49.1,43.5,29.92,NNW,338,0.0,0.0,81,0.00,OVC,OVC,0.00,WeatherDisplay:10.37,2013-05-06 09:26:00,
2013-05-06 05:31:00,48.7,43.2,29.92,NNW,338,0.0,0.0,81,0.00,OVC,OVC,0.00,WeatherDisplay:10.37,2013-05-06 09:31:00,
2013-05-06 05:36:00,48.7,43.2,29.92,NNW,338,0.0,0.0,81,0.00,OVC,OVC,0.00,WeatherDisplay:10.37,2013-05-06 09:36:00,
2013-05-06 05:41:00,48.7,43.2,29.93,North,0,0.0,0.0,81,0.00,OVC,OVC,0.00,WeatherDisplay:10.37,2013-05-06 09:41:00,
2013-05-06 05:46:00,48.7,43.2,29.93,NNW,338,0.0,0.0,81,0.00,OVC,OVC,0.00,WeatherDisplay:10.37,2013-05-06 09:46:00,
2013-05-06 05:51:00,48.6,43.0,29.93,NW,315,0.0,0.0,81,0.00,OVC,OVC,0.00,WeatherDisplay:10.37,2013-05-06 09:51:00,
2013-05-06 05:56:00,48.6,43.0,29.92,NNW,338,0.0,0.0,81,0.00,OVC,OVC,0.00,WeatherDisplay:10.37,2013-05-06 09:56:00,
2013-05-06 06:01:00,48.4,42.8,29.93,North,0,0.0,0.0,81,0.00,OVC,OVC,0.00,WeatherDisplay:10.37,2013-05-06 10:01:00,
2013-05-06 06:06:00,48.4,42.8,29.93,North,0,0.0,0.0,81,0.00,OVC,OVC,0.00,WeatherDisplay:10.37,2013-05-06 10:06:00,
2013-05-06 06:11:00,48.4,42.8,29.93,NNW,338,0.0,0.0,81,0.00,OVC,OVC,0.00,WeatherDisplay:10.37,2013-05-06 10:11:00,
2013-05-06 06:16:00,48.4,42.5,29.92,NNW,338,0.0,0.0,80,0.00,OVC,OVC,0.00,WeatherDisplay:10.37,2013-05-06 10:16:00,
2013-05-06 06:21:00,48.4,42.5,29.92,North,0,0.0,0.0,80,0.00,OVC,OVC,0.00,WeatherDisplay:10.37,2013-05-06 10:21:00,
2013-05-06 06:26:00,48.4,42.5,29.92,NW,315,0.0,0.0,80,0.00,OVC,OVC,0.00,WeatherDisplay:10.37,2013-05-06 10:26:00,
2013-05-06 06:31:00,48.4,42.5,29.93,NNW,338,0.0,0.0,80,0.00,OVC,OVC,0.00,WeatherDisplay:10.37,2013-05-06 10:31:00,
2013-05-06 06:36:00,48.4,42.5,29.93,NNW,338,0.0,0.0,80,0.00,OVC,OVC,0.00,WeatherDisplay:10.37,2013-05-06 10:36:00,
2013-05-06 06:41:00,48.6,43.0,29.92,North,0,0.0,0.0,81,0.00,OVC,OVC,0.00,WeatherDisplay:10.37,2013-05-06 10:41:00,
2013-05-06 06:46:00,48.7,42.8,29.93,NNW,338,0.0,0.0,80,0.00,OVC,OVC,0.00,WeatherDisplay:10.37,2013-05-06 10:46:00,
2013-05-06 06:51:00,48.9,43.3,29.92,North,0,0.0,0.0,81,0.00,OVC,OVC,0.00,WeatherDisplay:10.37,2013-05-06 10:51:00,
2013-05-06 06:56:00,49.1,43.2,29.93,NNE,22,0.0,0.0,80,0.00,OVC,OVC,0.00,WeatherDisplay:10.37,2013-05-06 10:56:00,
2013-05-06 07:01:00,49.1,43.5,29.92,NNE,22,0.0,0.0,81,0.00,OVC,OVC,0.00,WeatherDisplay:10.37,2013-05-06 11:01:00,
2013-05-06 07:06:00,49.6,44.0,29.94,NNE,22,0.0,0.0,81,0.00,OVC,OVC,0.00,WeatherDisplay:10.37,2013-05-06 11:06:00,
2013-05-06 07:11:00,49.6,44.0,29.94,NNE,22,0.0,0.0,81,0.00,OVC,OVC,0.00,WeatherDisplay:10.37,2013-05-06 11:11:00,
2013-05-06 07:16:00,50.5,44.9,29.92,NNE,22,0.0,0.0,81,0.00,OVC,OVC,0.00,WeatherDisplay:10.37,2013-05-06 11:16:00,
2013-05-06 07:21:00,50.7,45.1,29.95,NE,45,0.0,0.0,81,0.00,OVC,OVC,0.00,WeatherDisplay:10.37,2013-05-06 11:21:00,
2013-05-06 07:26:00,51.4,45.8,29.92,NE,45,0.0,0.0,81,0.00,OVC,OVC,0.00,WeatherDisplay:10.37,2013-05-06 11:26:00,
2013-05-06 07:31:00,51.6,46.0,29.92,NE,45,0.0,0.0,81,0.00,OVC,OVC,0.00,WeatherDisplay:10.37,2013-05-06 11:31:00,
2013-05-06 07:36:00,51.4,45.8,29.95,NE,45,0.0,0.0,81,0.00,OVC,OVC,0.00,WeatherDisplay:10.37,2013-05-06 11:36:00,
2013-05-06 07:41:00,51.4,45.8,29.95,NE,45,0.0,0.0,81,0.00,OVC,OVC,0.00,WeatherDisplay:10.37,2013-05-06 11:41:00,
2013-05-06 07:46:00,53.2,47.2,29.96,ENE,68,0.0,0.0,80,0.00,OVC,OVC,0.00,WeatherDisplay:10.37,2013-05-06 11:46:00,
2013-05-06 07:51:00,53.2,47.6,29.95,ENE,68,0.0,0.0,81,0.00,OVC,OVC,0.00,WeatherDisplay:10.37,2013-05-06 11:51:00,
2013-05-06 07:56:00,54.0,47.9,29.96,East,90,0.0,0.0,80,0.00,OVC,OVC,0.00,WeatherDisplay:10.37,2013-05-06 11:56:00,
2013-05-06 08:01:00,55.0,48.6,29.96,ESE,112,0.0,0.0,79,0.00,OVC,OVC,0.00,WeatherDisplay:10.37,2013-05-06 12:01:00,
2013-05-06 08:06:00,55.0,48.6,29.96,ESE,112,0.0,0.0,79,0.00,OVC,OVC,0.00,WeatherDisplay:10.37,2013-05-06 12:06:00,
2013-05-06 08:11:00,56.1,49.4,29.96,ESE,112,0.0,1.4,78,0.00,OVC,OVC,0.00,WeatherDisplay:10.37,2013-05-06 12:11:00,
2013-05-06 08:16:00,56.8,50.1,29.96,ESE,112,2.3,2.3,78,0.00,OVC,OVC,0.00,WeatherDisplay:10.37,2013-05-06 12:16:00,
2013-05-06 08:21:00,57.4,51.6,29.95,ESE,112,1.2,1.4,81,0.00,OVC,OVC,0.00,WeatherDisplay:10.37,2013-05-06 12:21:00,
2013-05-06 08:26:00,57.2,50.4,29.96,ESE,112,2.3,2.3,78,0.00,OVC,OVC,0.00,WeatherDisplay:10.37,2013-05-06 12:26:00,
2013-05-06 08:31:00,58.1,49.1,29.95,ESE,112,0.0,0.0,72,0.00,OVC,OVC,0.00,WeatherDisplay:10.37,2013-05-06 12:31:00,
2013-05-06 08:36:00,58.6,49.6,29.95,ESE,112,0.0,0.0,72,0.00,OVC,OVC,0.00,WeatherDisplay:10.37,2013-05-06 12:36:00,
2013-05-06 08:41:00,58.8,49.8,29.95,ESE,112,2.3,2.3,72,0.00,OVC,OVC,0.00,WeatherDisplay:10.37,2013-05-06 12:41:00,
2013-05-06 08:46:00,58.8,49.8,29.95,ESE,112,0.0,0.0,72,0.00,OVC,OVC,0.00,WeatherDisplay:10.37,2013-05-06 12:46:00,
2013-05-06 08:51:00,59.5,49.4,29.96,ESE,112,0.0,0.0,69,0.00,OVC,OVC,0.00,WeatherDisplay:10.37,2013-05-06 12:51:00,
2013-05-06 08:56:00,59.7,50.7,29.95,NE,45,0.0,0.0,72,0.00,OVC,OVC,0.00,WeatherDisplay:10.37,2013-05-06 12:56:00,
2013-05-06 09:01:00,60.1,49.9,29.96,ESE,112,0.0,0.0,69,0.00,OVC,OVC,0.00,WeatherDisplay:10.37,2013-05-06 13:01:00,
2013-05-06 09:06:00,60.1,51.0,29.95,ESE,112,0.0,0.0,72,0.00,OVC,OVC,0.00,WeatherDisplay:10.37,2013-05-06 13:06:00,
2013-05-06 09:11:00,60.1,51.0,29.95,NE,45,0.0,0.0,72,0.00,OVC,OVC,0.00,WeatherDisplay:10.37,2013-05-06 13:11:00,
2013-05-06 09:16:00,60.4,49.8,29.97,ENE,68,0.0,0.0,68,0.00,OVC,OVC,0.00,WeatherDisplay:10.37,2013-05-06 13:16:00,
2013-05-06 09:21:00,60.4,49.4,29.97,NE,45,0.0,0.0,67,0.00,OVC,OVC,0.00,WeatherDisplay:10.37,2013-05-06 13:21:00,
2013-05-06 09:26:00,60.6,51.5,29.95,NNE,22,0.0,0.0,72,0.00,OVC,OVC,0.00,WeatherDisplay:10.37,2013-05-06 13:26:00,
2013-05-06 09:31:00,60.6,51.5,29.95,ENE,68,0.0,0.0,72,0.00,OVC,OVC,0.00,WeatherDisplay:10.37,2013-05-06 13:31:00,
2013-05-06 09:36:00,61.0,51.9,29.95,ESE,112,0.0,0.0,72,0.00,OVC,OVC,0.00,WeatherDisplay:10.37,2013-05-06 13:36:00,
2013-05-06 09:41:00,61.2,49.7,29.97,ESE,112,0.0,0.0,66,0.00,OVC,OVC,0.00,WeatherDisplay:10.37,2013-05-06 13:41:00,
2013-05-06 09:46:00,61.9,52.8,29.95,ENE,68,0.0,0.0,72,0.00,OVC,OVC,0.00,WeatherDisplay:10.37,2013-05-06 13:46:00,
2013-05-06 09:51:00,62.4,50.1,29.97,ENE,68,0.0,0.0,64,0.00,OVC,OVC,0.00,WeatherDisplay:10.37,2013-05-06 13:51:00,
2013-05-06 09:56:00,62.6,50.2,29.97,SE,135,0.0,0.1,64,0.00,OVC,OVC,0.00,WeatherDisplay:10.37,2013-05-06 13:56:00,
2013-05-06 10:01:00,62.8,49.6,29.97,NE,45,2.3,2.3,62,0.00,OVC,OVC,0.00,WeatherDisplay:10.37,2013-05-06 14:01:00,
2013-05-06 10:06:00,62.8,50.0,29.97,NW,315,0.0,0.0,63,0.00,OVC,OVC,0.00,WeatherDisplay:10.37,2013-05-06 14:06:00,
2013-05-06 10:11:00,63.1,49.5,29.97,East,90,2.3,2.3,61,0.00,OVC,OVC,0.00,WeatherDisplay:10.37,2013-05-06 14:11:00,
2013-05-06 10:16:00,63.1,49.5,29.97,NE,45,1.2,1.2,61,0.00,OVC,OVC,0.00,WeatherDisplay:10.37,2013-05-06 14:16:00,
2013-05-06 10:21:00,63.1,49.5,29.97,NE,45,0.0,0.0,61,0.00,OVC,OVC,0.00,WeatherDisplay:10.37,2013-05-06 14:21:00,
2013-05-06 10:26:00,63.0,49.3,29.97,ENE,68,0.0,0.0,61,0.00,OVC,OVC,0.00,WeatherDisplay:10.37,2013-05-06 14:26:00,
2013-05-06 10:31:00,63.1,49.5,29.97,SE,135,1.2,0.0,61,0.00,OVC,OVC,0.00,WeatherDisplay:10.37,2013-05-06 14:31:00,
2013-05-06 10:36:00,63.1,49.5,29.97,NE,45,2.3,2.5,61,0.00,OVC,OVC,0.00,WeatherDisplay:10.37,2013-05-06 14:36:00,
2013-05-06 10:41:00,64.2,49.1,29.98,NNE,22,0.0,0.0,58,0.00,OVC,OVC,0.00,WeatherDisplay:10.37,2013-05-06 14:41:00,
2013-05-06 10:46:00,64.2,49.1,29.98,East,90,0.0,0.0,58,0.00,OVC,OVC,0.00,WeatherDisplay:10.37,2013-05-06 14:46:00,
2013-05-06 10:51:00,64.8,49.6,29.98,SE,135,2.3,2.3,58,0.00,OVC,OVC,0.00,WeatherDisplay:10.37,2013-05-06 14:51:00,
2013-05-06 10:56:00,64.8,49.6,29.98,NE,45,0.0,0.0,58,0.00,OVC,OVC,0.00,WeatherDisplay:10.37,2013-05-06 14:56:00,
2013-05-06 11:01:00,65.3,50.1,29.98,ESE,112,2.3,2.5,58,0.00,OVC,OVC,0.00,WeatherDisplay:10.37,2013-05-06 15:01:00,
2013-05-06 11:06:00,65.1,50.0,29.98,South,180,0.0,0.0,58,0.00,OVC,OVC,0.00,WeatherDisplay:10.37,2013-05-06 15:06:00,
2013-05-06 11:11:00,65.5,50.3,29.98,South,180,0.0,0.6,58,0.00,OVC,OVC,0.00,WeatherDisplay:10.37,2013-05-06 15:11:00,
2013-05-06 11:16:00,65.7,50.5,29.98,NNE,22,0.0,0.0,58,0.00,OVC,OVC,0.00,WeatherDisplay:10.37,2013-05-06 15:16:00,
2013-05-06 11:21:00,65.5,50.3,29.98,ESE,112,2.0,2.0,58,0.00,OVC,OVC,0.00,WeatherDisplay:10.37,2013-05-06 15:21:00,
2013-05-06 11:26:00,66.0,50.8,29.98,SE,135,2.3,2.3,58,0.00,OVC,OVC,0.00,WeatherDisplay:10.37,2013-05-06 15:26:00,
2013-05-06 11:31:00,66.0,49.9,29.98,SE,135,0.0,0.0,56,0.00,OVC,OVC,0.00,WeatherDisplay:10.37,2013-05-06 15:31:00,
2013-05-06 11:36:00,66.7,50.5,29.98,NE,45,3.5,3.5,56,0.00,OVC,OVC,0.00,WeatherDisplay:10.37,2013-05-06 15:36:00,
2013-05-06 11:41:00,66.7,50.5,29.98,SE,135,2.3,2.3,56,0.00,OVC,OVC,0.00,WeatherDisplay:10.37,2013-05-06 15:41:00,
2013-05-06 11:46:00,66.9,51.7,29.99,North,0,0.0,0.0,58,0.00,OVC,OVC,0.00,WeatherDisplay:10.37,2013-05-06 15:46:00,
2013-05-06 11:51:00,67.3,49.0,29.99,East,90,3.5,3.5,52,0.00,OVC,OVC,0.00,WeatherDisplay:10.37,2013-05-06 15:51:00,
2013-05-06 11:56:00,67.3,49.0,29.98,North,0,3.5,3.5,52,0.00,OVC,OVC,0.00,WeatherDisplay:10.37,2013-05-06 15:56:00,
2013-05-06 12:01:00,67.6,48.9,29.98,SE,135,2.3,2.3,51,0.00,OVC,OVC,0.00,WeatherDisplay:10.37,2013-05-06 16:01:00,
2013-05-06 12:06:00,67.6,48.9,29.98,SE,135,0.0,1.9,51,0.00,OVC,OVC,0.00,WeatherDisplay:10.37,2013-05-06 16:06:00,
2013-05-06 12:11:00,68.2,49.4,29.98,ESE,112,3.5,3.5,51,0.00,OVC,OVC,0.00,WeatherDisplay:10.37,2013-05-06 16:11:00,
2013-05-06 12:16:00,67.8,49.0,29.98,ESE,112,3.5,3.5,51,0.00,OVC,OVC,0.00,WeatherDisplay:10.37,2013-05-06 16:16:00,
2013-05-06 12:21:00,67.1,48.4,29.97,ENE,68,3.5,3.5,51,0.00,OVC,OVC,0.00,WeatherDisplay:10.37,2013-05-06 16:21:00,
2013-05-06 12:26:00,66.6,47.9,29.97,NNE,22,0.0,0.9,51,0.00,OVC,OVC,0.00,WeatherDisplay:10.37,2013-05-06 16:26:00,
2013-05-06 12:31:00,66.0,47.9,29.97,ESE,112,2.3,2.3,52,0.00,OVC,OVC,0.00,WeatherDisplay:10.37,2013-05-06 16:31:00,
2013-05-06 12:36:00,66.0,47.9,29.97,ESE,112,2.3,2.3,52,0.00,OVC,OVC,0.00,WeatherDisplay:10.37,2013-05-06 16:36:00,
2013-05-06 12:41:00,65.5,47.9,29.97,SSE,158,0.0,0.6,53,0.00,OVC,OVC,0.00,WeatherDisplay:10.37,2013-05-06 16:41:00,
2013-05-06 12:46:00,65.1,47.6,29.97,ESE,112,0.0,0.3,53,0.00,OVC,OVC,0.00,WeatherDisplay:10.37,2013-05-06 16:46:00,
2013-05-06 12:51:00,65.5,48.4,29.97,ESE,112,3.5,3.5,54,0.00,OVC,OVC,0.00,WeatherDisplay:10.37,2013-05-06 16:51:00,
2013-05-06 12:56:00,65.8,48.7,29.97,ESE,112,1.2,1.7,54,0.00,OVC,OVC,0.00,WeatherDisplay:10.37,2013-05-06 16:56:00,
2013-05-06 13:01:00,66.4,48.7,29.97,NNE,22,0.0,1.4,53,0.00,OVC,OVC,0.00,WeatherDisplay:10.37,2013-05-06 17:01:00,
2013-05-06 13:06:00,66.7,49.1,29.97,SSE,158,0.0,0.9,53,0.00,OVC,OVC,0.00,WeatherDisplay:10.37,2013-05-06 17:06:00,
2013-05-06 13:11:00,66.7,48.5,29.97,ESE,112,0.0,0.7,52,0.00,OVC,OVC,0.00,WeatherDisplay:10.37,2013-05-06 17:11:00,
2013-05-06 13:16:00,66.7,48.5,29.97,ESE,112,1.2,1.5,52,0.00,OVC,OVC,0.00,WeatherDisplay:10.37,2013-05-06 17:16:00,
2013-05-06 13:21:00,67.6,48.3,29.97,NNE,22,2.3,2.3,50,0.00,OVC,OVC,0.00,WeatherDisplay:10.37,2013-05-06 17:21:00,
2013-05-06 13:26:00,67.6,48.3,29.97,NNE,22,2.3,2.3,50,0.00,OVC,OVC,0.00,WeatherDisplay:10.37,2013-05-06 17:26:00,
2013-05-06 13:31:00,67.8,49.5,29.96,East,90,1.2,1.2,52,0.00,OVC,OVC,0.00,WeatherDisplay:10.37,2013-05-06 17:31:00,
2013-05-06 13:36:00,68.2,49.4,29.96,East,90,1.3,0.0,51,0.00,OVC,OVC,0.00,WeatherDisplay:10.37,2013-05-06 17:36:00,
2013-05-06 13:41:00,69.4,50.0,29.96,ENE,68,2.3,0.0,50,0.00,OVC,OVC,0.00,WeatherDisplay:10.37,2013-05-06 17:41:00,
2013-05-06 13:46:00,70.0,49.4,29.96,ESE,112,2.3,2.3,48,0.00,OVC,OVC,0.00,WeatherDisplay:10.37,2013-05-06 17:46:00,
2013-05-06 13:51:00,70.3,50.3,29.96,ESE,112,2.3,2.3,49,0.00,OVC,OVC,0.00,WeatherDisplay:10.37,2013-05-06 17:51:00,
2013-05-06 13:56:00,70.3,50.3,29.96,ESE,112,2.3,2.3,49,0.00,OVC,OVC,0.00,WeatherDisplay:10.37,2013-05-06 17:56:00,
2013-05-06 14:01:00,70.3,49.7,29.96,ESE,112,0.0,1.2,48,0.00,OVC,OVC,0.00,WeatherDisplay:10.37,2013-05-06 18:01:00,
2013-05-06 14:06:00,70.3,49.7,29.96,ESE,112,3.5,3.5,48,0.00,OVC,OVC,0.00,WeatherDisplay:10.37,2013-05-06 18:06:00,
2013-05-06 14:11:00,70.7,50.6,29.96,SE,135,2.3,2.3,49,0.00,OVC,OVC,0.00,WeatherDisplay:10.37,2013-05-06 18:11:00,
2013-05-06 14:16:00,70.7,50.6,29.96,ESE,112,3.5,3.5,49,0.00,OVC,OVC,0.00,WeatherDisplay:10.37,2013-05-06 18:16:00,
2013-05-06 14:21:00,70.5,49.9,29.96,ESE,112,2.3,3.3,48,0.00,OVC,OVC,0.00,WeatherDisplay:10.37,2013-05-06 18:21:00,
2013-05-06 14:26:00,70.2,49.5,29.96,ESE,112,3.5,3.5,48,0.00,OVC,OVC,0.00,WeatherDisplay:10.37,2013-05-06 18:26:00,
2013-05-06 14:31:00,70.0,49.4,29.96,ESE,112,2.3,2.3,48,0.00,OVC,OVC,0.00,WeatherDisplay:10.37,2013-05-06 18:31:00,
2013-05-06 14:36:00,70.0,48.8,29.96,East,90,0.0,1.9,47,0.00,OVC,OVC,0.00,WeatherDisplay:10.37,2013-05-06 18:36:00,
2013-05-06 14:41:00,70.2,50.1,29.96,ENE,68,2.3,2.3,49,0.00,OVC,OVC,0.00,WeatherDisplay:10.37,2013-05-06 18:41:00,
2013-05-06 14:46:00,70.0,49.4,29.96,NE,45,0.0,0.0,48,0.00,OVC,OVC,0.00,WeatherDisplay:10.37,2013-05-06 18:46:00,
2013-05-06 14:51:00,69.4,48.9,29.96,ESE,112,0.0,0.7,48,0.00,OVC,OVC,0.00,WeatherDisplay:10.37,2013-05-06 18:51:00,
2013-05-06 14:56:00,69.4,48.9,29.96,ESE,112,2.3,2.3,48,0.00,OVC,OVC,0.00,WeatherDisplay:10.37,2013-05-06 18:56:00,
2013-05-06 15:01:00,69.1,49.1,29.96,ESE,112,1.2,2.3,49,0.00,OVC,OVC,0.00,WeatherDisplay:10.37,2013-05-06 19:01:00,
2013-05-06 15:06:00,69.3,49.8,29.95,ESE,112,0.0,0.5,50,0.00,OVC,OVC,0.00,WeatherDisplay:10.37,2013-05-06 19:06:00,
2013-05-06 15:11:00,69.6,50.7,29.95,ESE,112,1.2,2.0,51,0.00,OVC,OVC,0.00,WeatherDisplay:10.37,2013-05-06 19:11:00,
2013-05-06 15:16:00,69.6,50.7,29.95,ESE,112,3.5,3.5,51,0.00,OVC,OVC,0.00,WeatherDisplay:10.37,2013-05-06 19:16:00,
2013-05-06 15:21:00,70.3,50.8,29.95,ESE,112,3.5,3.5,50,0.00,OVC,OVC,0.00,WeatherDisplay:10.37,2013-05-06 19:21:00,
2013-05-06 15:26:00,70.2,50.6,29.95,ESE,112,0.0,0.0,50,0.00,OVC,OVC,0.00,WeatherDisplay:10.37,2013-05-06 19:26:00,
2013-05-06 15:31:00,70.0,50.5,29.95,ESE,112,2.3,2.3,50,0.00,OVC,OVC,0.00,WeatherDisplay:10.37,2013-05-06 19:31:00,
2013-05-06 15:36:00,70.2,50.6,29.94,ESE,112,3.5,3.5,50,0.00,OVC,OVC,0.00,WeatherDisplay:10.37,2013-05-06 19:36:00,
2013-05-06 15:41:00,70.5,51.0,29.95,ESE,112,3.5,3.5,50,0.00,OVC,OVC,0.00,WeatherDisplay:10.37,2013-05-06 19:41:00,
2013-05-06 15:46:00,70.3,51.3,29.95,ESE,112,3.5,3.5,51,0.00,OVC,OVC,0.00,WeatherDisplay:10.37,2013-05-06 19:46:00,
2013-05-06 15:51:00,70.9,51.3,29.95,NE,45,2.3,2.3,50,0.00,OVC,OVC,0.00,WeatherDisplay:10.37,2013-05-06 19:51:00,
2013-05-06 15:56:00,70.9,51.3,29.95,ENE,68,2.3,2.3,50,0.00,OVC,OVC,0.00,WeatherDisplay:10.37,2013-05-06 19:56:00,
2013-05-06 16:01:00,71.2,51.1,29.94,ESE,112,0.0,0.0,49,0.00,OVC,OVC,0.00,WeatherDisplay:10.37,2013-05-06 20:01:00,
2013-05-06 16:06:00,71.4,51.8,29.94,ESE,112,2.3,2.3,50,0.00,OVC,OVC,0.00,WeatherDisplay:10.37,2013-05-06 20:06:00,
2013-05-06 16:11:00,71.2,51.1,29.94,SE,135,2.2,2.2,49,0.00,OVC,OVC,0.00,WeatherDisplay:10.37,2013-05-06 20:11:00,
2013-05-06 16:16:00,71.2,51.1,29.94,ESE,112,2.3,2.4,49,0.00,OVC,OVC,0.00,WeatherDisplay:10.37,2013-05-06 20:16:00,
2013-05-06 16:21:00,71.2,51.1,29.94,East,90,2.3,2.3,49,0.00,OVC,OVC,0.00,WeatherDisplay:10.37,2013-05-06 20:21:00,
2013-05-06 16:26:00,70.7,51.1,29.94,ESE,112,2.3,3.8,50,0.00,OVC,OVC,0.00,WeatherDisplay:10.37,2013-05-06 20:26:00,
2013-05-06 16:31:00,71.2,51.6,29.94,ESE,112,3.5,3.5,50,0.00,OVC,OVC,0.00,WeatherDisplay:10.37,2013-05-06 20:31:00,
2013-05-06 16:36:00,71.4,51.3,29.93,ENE,68,3.5,3.5,49,0.00,OVC,OVC,0.00,WeatherDisplay:10.37,2013-05-06 20:36:00,
2013-05-06 16:41:00,71.4,51.3,29.93,ESE,112,2.3,2.3,49,0.00,OVC,OVC,0.00,WeatherDisplay:10.37,2013-05-06 20:41:00,
2013-05-06 16:46:00,71.4,51.8,29.94,ESE,112,3.5,3.5,50,0.00,OVC,OVC,0.00,WeatherDisplay:10.37,2013-05-06 20:46:00,
2013-05-06 16:51:00,71.4,51.3,29.93,SE,135,1.2,2.4,49,0.00,OVC,OVC,0.00,WeatherDisplay:10.37,2013-05-06 20:51:00,
2013-05-06 16:56:00,71.4,51.3,29.92,ESE,112,2.3,2.3,49,0.00,OVC,OVC,0.00,WeatherDisplay:10.37,2013-05-06 20:56:00,
2013-05-06 17:01:00,71.4,51.3,29.93,ESE,112,3.5,3.5,49,0.00,OVC,OVC,0.00,WeatherDisplay:10.37,2013-05-06 21:01:00,
2013-05-06 17:06:00,70.9,50.8,29.93,ESE,112,3.5,3.5,49,0.00,OVC,OVC,0.00,WeatherDisplay:10.37,2013-05-06 21:06:00,
2013-05-06 17:11:00,70.5,50.4,29.92,SE,135,2.3,2.3,49,0.00,OVC,OVC,0.00,WeatherDisplay:10.37,2013-05-06 21:11:00,
2013-05-06 17:16:00,70.5,50.4,29.92,SE,135,2.3,2.3,49,0.00,OVC,OVC,0.00,WeatherDisplay:10.37,2013-05-06 21:16:00,
2013-05-06 17:21:00,70.2,50.1,29.92,ESE,112,2.3,2.3,49,0.00,OVC,OVC,0.00,WeatherDisplay:10.37,2013-05-06 21:21:00,
2013-05-06 17:26:00,70.2,50.1,29.92,ESE,112,0.0,2.0,49,0.00,OVC,OVC,0.00,WeatherDisplay:10.37,2013-05-06 21:26:00,
2013-05-06 17:31:00,70.2,50.1,29.92,ESE,112,0.0,0.0,49,0.00,OVC,OVC,0.00,WeatherDisplay:10.37,2013-05-06 21:31:00,
2013-05-06 17:36:00,70.3,50.3,29.92,NE,45,0.0,0.0,49,0.00,OVC,OVC,0.00,WeatherDisplay:10.37,2013-05-06 21:36:00,
2013-05-06 17:41:00,70.3,50.3,29.92,ESE,112,0.0,0.0,49,0.00,OVC,OVC,0.00,WeatherDisplay:10.37,2013-05-06 21:41:00,
2013-05-06 17:46:00,69.4,49.4,29.92,NE,45,0.0,0.0,49,0.00,OVC,OVC,0.00,WeatherDisplay:10.37,2013-05-06 21:46:00,
2013-05-06 17:51:00,69.3,49.3,29.92,ESE,112,0.0,1.7,49,0.00,OVC,OVC,0.00,WeatherDisplay:10.37,2013-05-06 21:51:00,
2013-05-06 17:56:00,69.1,50.2,29.91,NE,45,3.5,3.5,51,0.00,OVC,OVC,0.00,WeatherDisplay:10.37,2013-05-06 21:56:00,
2013-05-06 18:01:00,69.1,50.2,29.91,ESE,112,0.0,2.7,51,0.00,OVC,OVC,0.00,WeatherDisplay:10.37,2013-05-06 22:01:00,
2013-05-06 18:06:00,68.9,50.0,29.91,ESE,112,2.3,2.3,51,0.00,OVC,OVC,0.00,WeatherDisplay:10.37,2013-05-06 22:06:00,
2013-05-06 18:11:00,68.9,50.0,29.91,NE,45,1.2,1.2,51,0.00,OVC,OVC,0.00,WeatherDisplay:10.37,2013-05-06 22:11:00,
2013-05-06 18:16:00,68.9,50.0,29.91,ESE,112,3.5,3.5,51,0.00,OVC,OVC,0.00,WeatherDisplay:10.37,2013-05-06 22:16:00,
2013-05-06 18:21:00,69.3,50.9,29.91,ESE,112,1.2,2.3,52,0.00,OVC,OVC,0.00,WeatherDisplay:10.37,2013-05-06 22:21:00,
2013-05-06 18:26:00,69.1,50.2,29.91,ESE,112,2.3,2.3,51,0.00,OVC,OVC,0.00,WeatherDisplay:10.37,2013-05-06 22:26:00,
2013-05-06 18:31:00,70.0,51.5,29.91,ESE,112,2.3,2.3,52,0.00,OVC,OVC,0.00,WeatherDisplay:10.37,2013-05-06 22:31:00,
2013-05-06 18:36:00,75.4,56.5,29.91,ESE,112,3.5,3.5,52,0.00,OVC,OVC,0.00,WeatherDisplay:10.37,2013-05-06 22:36:00,
2013-05-06 18:41:00,76.8,53.3,29.91,ESE,112,3.5,0.0,44,0.00,OVC,OVC,0.00,WeatherDisplay:10.37,2013-05-06 22:41:00,
2013-05-06 18:46:00,70.3,51.3,29.91,ESE,112,2.3,2.3,51,0.00,OVC,OVC,0.00,WeatherDisplay:10.37,2013-05-06 22:46:00,
2013-05-06 18:51:00,80.4,53.9,29.91,ESE,112,2.3,2.3,40,0.00,OVC,OVC,0.00,WeatherDisplay:10.37,2013-05-06 22:51:00,
2013-05-06 18:56:00,79.3,52.9,29.91,ESE,112,2.3,2.3,40,0.00,OVC,OVC,0.00,WeatherDisplay:10.37,2013-05-06 22:56:00,
2013-05-06 19:01:00,79.3,52.9,29.91,SE,135,1.2,1.2,40,0.00,OVC,OVC,0.00,WeatherDisplay:10.37,2013-05-06 23:01:00,
2013-05-06 19:06:00,76.1,50.0,29.91,ESE,112,2.3,2.5,40,0.00,OVC,OVC,0.00,WeatherDisplay:10.37,2013-05-06 23:06:00,
2013-05-06 19:11:00,70.2,47.2,29.93,ESE,112,0.0,0.0,44,0.00,OVC,OVC,0.00,WeatherDisplay:10.37,2013-05-06 23:11:00,
2013-05-06 19:16:00,67.6,46.1,29.91,SE,135,1.2,1.3,46,0.00,OVC,OVC,0.00,WeatherDisplay:10.37,2013-05-06 23:16:00,
2013-05-06 19:21:00,66.6,47.3,29.92,SE,135,0.0,0.9,50,0.00,OVC,OVC,0.00,WeatherDisplay:10.37,2013-05-06 23:21:00,
2013-05-06 19:26:00,66.6,47.3,29.92,ESE,112,2.3,2.3,50,0.00,OVC,OVC,0.00,WeatherDisplay:10.37,2013-05-06 23:26:00,
2013-05-06 19:31:00,64.9,47.4,29.92,SE,135,0.0,0.0,53,0.00,OVC,OVC,0.00,WeatherDisplay:10.37,2013-05-06 23:31:00,
2013-05-06 19:36:00,64.8,47.2,29.92,ESE,112,1.2,1.2,53,0.00,OVC,OVC,0.00,WeatherDisplay:10.37,2013-05-06 23:36:00,
2013-05-06 19:41:00,64.0,46.6,29.92,ESE,112,0.0,0.0,53,0.00,OVC,OVC,0.00,WeatherDisplay:10.37,2013-05-06 23:41:00,
2013-05-06 19:46:00,63.7,47.7,29.92,ESE,112,2.3,2.3,56,0.00,OVC,OVC,0.00,WeatherDisplay:10.37,2013-05-06 23:46:00,
2013-05-06 19:51:00,63.3,47.3,29.92,ESE,112,0.0,0.6,56,0.00,OVC,OVC,0.00,WeatherDisplay:10.37,2013-05-06 23:51:00,
2013-05-06 19:56:00,63.3,47.3,29.92,ESE,112,0.0,0.0,56,0.00,OVC,OVC,0.00,WeatherDisplay:10.37,2013-05-06 23:56:00,
2013-05-06 20:01:00,63.5,48.0,29.92,SE,135,2.3,2.4,57,0.00,OVC,OVC,0.00,WeatherDisplay:10.37,2013-05-07 00:01:00,
2013-05-06 20:06:00,63.1,47.7,29.92,SE,135,2.3,2.6,57,0.00,OVC,OVC,0.00,WeatherDisplay:10.37,2013-05-07 00:06:00,
2013-05-06 20:11:00,62.2,46.8,29.92,ESE,112,2.3,2.3,57,0.00,OVC,OVC,0.00,WeatherDisplay:10.37,2013-05-07 00:11:00,
2013-05-06 20:16:00,62.4,47.4,29.92,SE,135,2.3,2.3,58,0.00,OVC,OVC,0.00,WeatherDisplay:10.37,2013-05-07 00:16:00,
2013-05-06 20:21:00,61.3,46.9,29.92,ESE,112,0.0,0.0,59,0.00,OVC,OVC,0.00,WeatherDisplay:10.37,2013-05-07 00:21:00,
2013-05-06 20:26:00,61.3,47.3,29.93,SE,135,0.0,0.0,60,0.00,OVC,OVC,0.00,WeatherDisplay:10.37,2013-05-07 00:26:00,
2013-05-06 20:31:00,61.0,47.4,29.93,ESE,112,0.0,0.0,61,0.00,OVC,OVC,0.00,WeatherDisplay:10.37,2013-05-07 00:31:00,
2013-05-06 20:36:00,60.4,46.9,29.93,ESE,112,2.3,2.3,61,0.00,OVC,OVC,0.00,WeatherDisplay:10.37,2013-05-07 00:36:00,
2013-05-06 20:41:00,60.4,46.9,29.93,ESE,112,0.0,0.0,61,0.00,OVC,OVC,0.00,WeatherDisplay:10.37,2013-05-07 00:41:00,
2013-05-06 20:46:00,60.1,46.6,29.94,ESE,112,0.0,0.6,61,0.00,OVC,OVC,0.00,WeatherDisplay:10.37,2013-05-07 00:46:00,
2013-05-06 20:51:00,59.5,46.9,29.93,ESE,112,0.0,0.0,63,0.00,OVC,OVC,0.00,WeatherDisplay:10.37,2013-05-07 00:51:00,
2013-05-06 20:56:00,59.2,46.6,29.93,ESE,112,0.0,0.0,63,0.00,OVC,OVC,0.00,WeatherDisplay:10.37,2013-05-07 00:56:00,
2013-05-06 21:01:00,59.0,46.8,29.93,ESE,112,0.0,1.6,64,0.00,OVC,OVC,0.00,WeatherDisplay:10.37,2013-05-07 01:01:00,
2013-05-06 21:06:00,58.8,46.7,29.93,SE,135,0.0,0.0,64,0.00,OVC,OVC,0.00,WeatherDisplay:10.37,2013-05-07 01:06:00,
2013-05-06 21:11:00,58.5,46.3,29.93,SE,135,0.0,0.0,64,0.00,OVC,OVC,0.00,WeatherDisplay:10.37,2013-05-07 01:11:00,
2013-05-06 21:16:00,58.5,46.3,29.93,ESE,112,0.0,0.0,64,0.00,OVC,OVC,0.00,WeatherDisplay:10.37,2013-05-07 01:16:00,
2013-05-06 21:21:00,57.6,45.5,29.93,SE,135,0.0,0.0,64,0.00,OVC,OVC,0.00,WeatherDisplay:10.37,2013-05-07 01:21:00,
2013-05-06 21:26:00,57.7,45.6,29.93,ESE,112,0.0,0.0,64,0.00,OVC,OVC,0.00,WeatherDisplay:10.37,2013-05-07 01:26:00,
2013-05-06 21:31:00,57.0,46.2,29.94,ESE,112,0.0,0.0,67,0.00,OVC,OVC,0.00,WeatherDisplay:10.37,2013-05-07 01:31:00,
2013-05-06 21:36:00,57.0,46.2,29.94,ESE,112,0.0,0.0,67,0.00,OVC,OVC,0.00,WeatherDisplay:10.37,2013-05-07 01:36:00,
2013-05-06 21:41:00,56.8,46.0,29.94,ESE,112,0.0,0.0,67,0.00,OVC,OVC,0.00,WeatherDisplay:10.37,2013-05-07 01:41:00,
2013-05-06 21:47:00,56.5,45.7,29.94,SE,135,0.0,0.6,67,0.00,OVC,OVC,0.00,WeatherDisplay:10.37,2013-05-07 01:47:00,
2013-05-06 21:52:00,56.3,45.5,29.94,ESE,112,0.0,0.0,67,0.00,OVC,OVC,0.00,WeatherDisplay:10.37,2013-05-07 01:52:00,
2013-05-06 21:57:00,56.1,45.3,29.94,ESE,112,1.2,1.2,67,0.00,OVC,OVC,0.00,WeatherDisplay:10.37,2013-05-07 01:57:00,
2013-05-06 22:02:00,55.9,45.1,29.94,ESE,112,0.0,0.0,67,0.00,OVC,OVC,0.00,WeatherDisplay:10.37,2013-05-07 02:02:00,
2013-05-06 22:07:00,55.8,45.0,29.94,ESE,112,0.0,0.0,67,0.00,OVC,OVC,0.00,WeatherDisplay:10.37,2013-05-07 02:07:00,
2013-05-06 22:12:00,55.8,45.0,29.94,ESE,112,0.0,0.0,67,0.00,OVC,OVC,0.00,WeatherDisplay:10.37,2013-05-07 02:12:00,
2013-05-06 22:17:00,55.8,45.0,29.94,SE,135,0.0,0.0,67,0.00,OVC,OVC,0.00,WeatherDisplay:10.37,2013-05-07 02:17:00,
2013-05-06 22:22:00,55.2,44.8,29.95,SE,135,0.0,0.0,68,0.00,OVC,OVC,0.00,WeatherDisplay:10.37,2013-05-07 02:22:00,
2013-05-06 22:27:00,55.2,44.8,29.95,ESE,112,0.0,0.0,68,0.00,OVC,OVC,0.00,WeatherDisplay:10.37,2013-05-07 02:27:00,
2013-05-06 22:32:00,55.0,44.7,29.95,ESE,112,0.0,0.0,68,0.00,OVC,OVC,0.00,WeatherDisplay:10.37,2013-05-07 02:32:00,
2013-05-06 22:37:00,54.9,44.5,29.95,SE,135,0.0,0.0,68,0.00,OVC,OVC,0.00,WeatherDisplay:10.37,2013-05-07 02:37:00,
2013-05-06 22:42:00,54.7,44.3,29.95,ESE,112,0.0,0.0,68,0.00,OVC,OVC,0.00,WeatherDisplay:10.37,2013-05-07 02:42:00,
2013-05-06 22:47:00,54.7,44.7,29.95,ESE,112,0.0,0.0,69,0.00,OVC,OVC,0.00,WeatherDisplay:10.37,2013-05-07 02:47:00,
2013-05-06 22:52:00,54.7,44.7,29.95,SE,135,0.0,0.0,69,0.00,OVC,OVC,0.00,WeatherDisplay:10.37,2013-05-07 02:52:00,
2013-05-06 22:57:00,54.5,44.5,29.95,SE,135,0.0,0.0,69,0.00,OVC,OVC,0.00,WeatherDisplay:10.37,2013-05-07 02:57:00,
2013-05-06 23:02:00,54.3,44.4,29.95,SE,135,0.0,0.0,69,0.00,OVC,OVC,0.00,WeatherDisplay:10.37,2013-05-07 03:02:00,
2013-05-06 23:07:00,54.1,44.2,29.95,ESE,112,0.0,0.0,69,0.00,OVC,OVC,0.00,WeatherDisplay:10.37,2013-05-07 03:07:00,
2013-05-06 23:12:00,54.1,44.2,29.95,ESE,112,0.0,0.0,69,0.00,OVC,OVC,0.00,WeatherDisplay:10.37,2013-05-07 03:12:00,
2013-05-06 23:17:00,54.0,44.4,29.95,NNW,338,0.0,0.0,70,0.00,OVC,OVC,0.00,WeatherDisplay:10.37,2013-05-07 03:17:00,
2013-05-06 23:22:00,53.8,44.2,29.95,NW,315,0.0,0.0,70,0.00,OVC,OVC,0.00,WeatherDisplay:10.37,2013-05-07 03:22:00,
2013-05-06 23:27:00,53.8,44.2,29.95,NNW,338,0.0,0.0,70,0.00,OVC,OVC,0.00,WeatherDisplay:10.37,2013-05-07 03:27:00,
2013-05-06 23:32:00,53.8,44.2,29.94,NNE,22,0.0,0.0,70,0.00,OVC,OVC,0.00,WeatherDisplay:10.37,2013-05-07 03:32:00,
2013-05-06 23:37:00,53.8,44.2,29.94,North,0,0.0,0.0,70,0.00,OVC,OVC,0.00,WeatherDisplay:10.37,2013-05-07 03:37:00,
2013-05-06 23:42:00,53.4,43.9,29.94,North,0,0.0,0.0,70,0.00,OVC,OVC,0.00,WeatherDisplay:10.37,2013-05-07 03:42:00,
2013-05-06 23:47:00,53.4,43.9,29.94,North,0,0.0,0.0,70,0.00,OVC,OVC,0.00,WeatherDisplay:10.37,2013-05-07 03:47:00,
2013-05-06 23:52:00,53.4,44.2,29.94,North,0,0.0,0.0,71,0.00,OVC,OVC,0.00,WeatherDisplay:10.37,2013-05-07 03:52:00,
2013-05-06 23:57:00,53.4,44.2,29.94,North,0,0.0,0.0,71,0.00,OVC,OVC,0.00,WeatherDisplay:10.37,2013-05-07 03:57:00,